Location: Haliburton Scout Reserve
(45.0900°N, 78.3200°W)
Time: 13:44:40
(UTC-04:00)

Cosmos 1315 - Visible Passes

Search period start: 24 July 2014 00:00
Search period end: 03 August 2014 00:00
Orbit: 416 x 423 km, 81.1° (Epoch: 23 July)

Date Brightness Start Highest point End Pass type
(mag) Time Alt. Az. Time Alt. Az. Time Alt. Az.
24 Jul 2.6 23:10:05 10° N 23:13:21 74° E 23:13:28 73° ESE visible
25 Jul 4.2 22:25:26 10° NNE 22:28:08 23° ENE 22:28:50 22° E visible
25 Jul 5.1 23:59:35 10° NW 00:01:49 17° W 00:01:51 17° W visible
26 Jul 3.2 23:13:42 10° NNW 23:16:54 52° W 23:17:13 50° WSW visible
27 Jul 3.3 22:28:37 10° N 22:31:46 44° ENE 22:32:35 35° ESE visible
28 Jul 4.8 21:44:19 10° NNE 21:46:24 16° ENE 21:47:58 12° E visible
28 Jul 4.4 23:17:31 10° NW 23:20:19 27° W 23:20:59 25° WSW visible
29 Jul 2.7 22:32:00 10° N 22:35:16 90° W 22:36:22 39° S visible
30 Jul 3.9 21:47:08 10° NNE 21:50:00 27° ENE 21:51:46 17° ESE visible
30 Jul 5.3 23:21:42 10° NW 23:23:37 15° W 23:24:47 13° WSW visible
31 Jul 3.7 22:35:32 10° NNW 22:38:39 43° W 22:40:11 24° SSW visible
01 Aug 3.0 21:50:16 10° N 21:53:29 53° ENE 21:55:36 19° SSE visible
02 Aug 4.9 22:39:17 10° NW 22:41:55 23° W 22:44:03 13° SW visible
